EW6288 Weather Reports


Display with metric or nautical units.
time (UTC)temp
F
wind
direction
speed
MPH
gust
MPH
rain 1hr
in
rain 24hr
in
rain mn
in
humidity
%
barometer
mb
20260508031104 75 49 1.0 3.0 0.00 0.00 0.00 76 1013.6
20260508030603 75 57 0.0 2.0 0.00 0.00 0.00 76 1013.5
20260508030104 75 57 0.0 2.0 0.00 0.00 0.00 76 1013.6
20260508025604 75 145 0.0 2.0 0.00 0.00 0.00 76 1013.5
20260508025104 75 146 0.0 2.0 0.00 0.00 0.00 76 1013.5
20260508024600 75 146 0.0 2.0 0.00 0.00 0.00 76 1013.7
20260508024102 75 159 0.0 2.0 0.00 0.00 0.00 76 1013.3
20260508023601 75 159 0.0 2.0 0.00 0.00 0.00 77 1013.3
20260508023100 75 160 0.0 4.0 0.00 0.00 0.00 77 1013.0
20260508022558 75 160 0.0 4.0 0.00 0.00 0.00 77 1013.3
20260508022058 75 35 1.0 2.0 0.00 0.00 0.00 77 1013.3
20260508021829 75 35 1.0 2.0 0.00 0.00 0.00 77 1013.1
20260508021056 75 5 1.0 2.0 0.00 0.00 0.00 77 1013.2
20260508020557 75 5 0.0 2.0 0.00 0.00 0.00 77 1013.2
20260508020058 75 5 0.0 2.0 0.00 0.00 0.00 77 1013.1
20260508015557 75 5 0.0 2.0 0.00 0.00 0.00 77 1013.0
20260508015055 75 5 0.0 2.0 0.00 0.00 0.00 77 1013.1
20260508014555 75 5 0.0 2.0 0.00 0.00 0.00 77 1013.1
20260508014054 76 5 0.0 2.0 0.00 0.00 0.00 77 1013.1
20260508013555 76 5 0.0 4.0 0.00 0.00 0.00 77 1012.9
20260508013052 76 5 0.0 4.0 0.00 0.00 0.00 77 1013.1
20260508012553 76 5 1.0 4.0 0.00 0.00 0.00 77 1013.1
20260508012053 76 5 0.0 4.0 0.00 0.00 0.00 77 1013.1
20260508011555 76 20 1.0 5.0 0.00 0.00 0.00 77 1013.0
20260508011050 76 20 1.0 5.0 0.00 0.00 0.00 77 1013.2
20260508010549 76 41 1.0 5.0 0.00 0.00 0.00 78 1013.3
20260508010048 76 0 1.0 5.0 0.00 0.00 0.00 78 1013.4
20260508005549 76 36 1.0 4.0 0.00 0.00 0.00 78 1013.4
20260508005046 76 51 1.0 4.0 0.00 0.00 0.00 78 1013.2
20260508004549 76 61 1.0 4.0 0.00 0.00 0.00 77 1012.9
20260508004045 76 57 1.0 4.0 0.00 0.00 0.00 78 1012.9
20260508003542 76 13 1.0 4.0 0.00 0.00 0.00 79 1013.0
20260508003314 76 346 1.0 4.0 0.00 0.00 0.00 78 1013.1
20260508002547 76 0 0.0 2.0 0.00 0.00 0.00 78 1013.1
20260508002542 76 347 0.0 4.0 0.00 0.00 0.00 78 1013.1
20260508001542 76 0 0.0 2.0 0.00 0.00 0.00 78 1013.1
20260508001045 76 0 0.0 5.0 0.00 0.00 0.00 78 1013.1
20260508000542 76 5 0.0 5.0 0.00 0.00 0.00 78 1013.1
20260508000044 76 5 1.0 5.0 0.00 0.00 0.00 79 1013.3
20260507235544 76 5 1.0 5.0 0.00 0.00 0.00 79 1013.3
20260507235310 76 45 1.0 4.0 0.00 0.00 0.00 79 1013.2
20260507234542 76 355 1.0 4.0 0.00 0.00 0.00 79 1013.2
20260507234040 76 5 1.0 3.0 0.00 0.00 0.00 79 1013.1
20260507233541 76 5 1.0 3.0 0.00 0.00 0.00 79 1013.1
20260507233040 76 5 1.0 4.0 0.00 0.00 0.00 79 1013.0
20260507232544 76 351 1.0 4.0 0.00 0.00 0.00 79 1012.9
20260507232038 76 327 1.0 6.0 0.00 0.00 0.00 79 1012.8
20260507231539 76 37 1.0 6.0 0.00 0.00 0.00 79 1012.8
20260507231041 77 13 2.0 6.0 0.00 0.00 0.00 79 1012.9
20260507230539 77 333 1.0 6.0 0.00 0.00 0.00 78 1012.7
20260507230037 77 53 1.0 3.0 0.00 0.00 0.00 77 1012.6
20260507225808 77 325 1.0 6.0 0.00 0.00 0.00 77 1012.7
20260507225037 78 44 1.0 6.0 0.00 0.00 0.00 77 1012.7
20260507224536 78 23 1.0 4.0 0.00 0.00 0.00 76 1012.5
20260507224039 77 338 1.0 4.0 0.00 0.00 0.00 77 1012.6
20260507223538 77 58 0.0 4.0 0.00 0.00 0.00 77 1012.7
20260507223035 77 42 1.0 5.0 0.00 0.00 0.00 79 1012.7
20260507222536 77 42 2.0 5.0 0.00 0.00 0.00 78 1012.6
20260507222036 77 17 2.0 5.0 0.00 0.00 0.00 77 1012.7
20260507221808 78 63 2.0 6.0 0.00 0.00 0.00 78 1012.7
20260507221035 78 43 2.0 6.0 0.00 0.00 0.00 78 1012.7
20260507220537 78 25 2.0 10.0 0.00 0.00 0.00 77 1012.8
20260507220037 78 309 2.0 10.0 0.00 0.00 0.00 78 1012.8
20260507215536 77 22 2.0 6.0 0.00 0.00 0.00 77 1012.9
20260507215037 78 339 2.0 8.0 0.00 0.00 0.00 77 1012.9
20260507214536 78 30 1.0 8.0 0.00 0.00 0.00 77 1012.9
20260507214036 78 39 2.0 8.0 0.00 0.00 0.00 76 1012.9
20260507213537 78 65 2.0 8.0 0.00 0.00 0.00 76 1013.0
20260507213036 78 325 2.0 7.0 0.00 0.00 0.00 75 1012.9
20260507212537 78 350 2.0 7.0 0.00 0.00 0.00 76 1012.9
20260507212036 78 5 1.0 4.0 0.00 0.00 0.00 75 1012.9
20260507211807 78 197 1.0 5.0 0.00 0.00 0.00 74 1013.1
20260507211304 78 42 1.0 5.0 0.00 0.00 0.00 74 1013.2
20260507210532 78 26 1.0 3.0 0.00 0.00 0.00 76 1013.2
20260507210031 78 95 1.0 2.0 0.00 0.00 0.00 75 1013.3
20260507205530 78 95 1.0 3.0 0.00 0.00 0.00 76 1013.2
20260507205029 78 100 1.0 3.0 0.00 0.00 0.00 75 1013.3
20260507204529 77 144 1.0 6.0 0.00 0.00 0.00 76 1013.4
20260507204027 77 159 1.0 6.0 0.00 0.00 0.00 76 1013.5
20260507203528 77 138 1.0 4.0 0.00 0.00 0.00 75 1013.6
20260507203255 77 207 1.0 4.0 0.00 0.00 0.00 76 1013.7
20260507202524 77 44 1.0 4.0 0.00 0.00 0.00 75 1013.7
20260507202254 77 46 1.0 6.0 0.00 0.00 0.00 75 1013.7
20260507201750 77 53 2.0 6.0 0.00 0.00 0.00 75 1013.7
20260507201020 77 74 2.0 6.0 0.00 0.00 0.00 75 1013.7
20260507200521 78 0 2.0 6.0 0.00 0.00 0.00 75 1013.6
20260507200020 77 347 2.0 9.0 0.00 0.00 0.00 75 1013.6
20260507195517 77 284 2.0 9.0 0.00 0.00 0.00 76 1013.7
20260507195020 77 50 2.0 8.0 0.00 0.00 0.00 77 1013.8
20260507194514 77 77 2.0 8.0 0.00 0.00 0.00 76 1014.0
20260507194013 76 53 3.0 8.0 0.00 0.00 0.00 75 1014.0
20260507193508 76 339 2.0 9.0 0.00 0.00 0.00 77 1014.1
20260507193007 76 18 2.0 9.0 0.00 0.00 0.00 77 1014.2
20260507192507 76 39 2.0 8.0 0.00 0.00 0.00 77 1014.3
20260507192005 75 333 2.0 12.0 0.00 0.00 0.00 78 1014.3
20260507191735 75 5 3.0 12.0 0.00 0.00 0.00 77 1014.4
20260507191004 75 340 3.0 8.0 0.00 0.00 0.00 77 1014.6
20260507190732 75 328 3.0 8.0 0.00 0.00 0.00 77 1014.7
20260507190004 75 275 3.0 10.0 0.00 0.00 0.00 77 1014.7
20260507185732 74 315 2.0 10.0 0.00 0.00 0.00 78 1014.7
20260507185002 74 42 2.0 9.0 0.00 0.00 0.00 78 1014.8
20260507184501 74 297 2.0 10.0 0.00 0.00 0.00 78 1014.8
20260507184235 74 304 2.0 10.0 0.00 0.00 0.00 78 1014.8
20260507183501 74 53 3.0 10.0 0.00 0.00 0.00 77 1014.8
20260507183002 74 11 3.0 10.0 0.00 0.00 0.00 78 1014.8
20260507182502 74 5 3.0 9.0 0.00 0.00 0.00 77 1014.9
20260507181959 74 312 3.0 8.0 0.00 0.00 0.00 78 1015.0
20260507181459 73 16 2.0 7.0 0.00 0.00 0.00 78 1015.1
20260507181002 73 329 3.0 9.0 0.00 0.00 0.00 78 1015.1
20260507180958 73 34 2.0 9.0 0.00 0.00 0.00 77 1015.1
20260507180229 72 327 2.0 9.0 0.00 0.00 0.00 79 1015.2
20260507175457 71 355 2.0 8.0 0.00 0.00 0.00 80 1015.1
20260507174956 71 323 2.0 6.0 0.00 0.00 0.00 80 1015.2
20260507174456 71 36 2.0 6.0 0.00 0.00 0.00 80 1015.3
20260507173959 70 342 3.0 12.0 0.00 0.00 0.00 80 1015.7
20260507173955 70 68 2.0 12.0 0.00 0.00 0.00 79 1015.4
20260507172955 70 0 3.0 12.0 0.00 0.00 0.00 80 1015.7
20260507172453 70 69 3.0 12.0 0.00 0.00 0.00 80 1015.6
20260507171953 70 45 3.0 8.0 0.00 0.00 0.00 80 1015.8
20260507171453 70 330 2.0 8.0 0.00 0.00 0.00 80 1015.8
20260507170954 69 5 2.0 8.0 0.00 0.00 0.00 80 1015.8
20260507170455 69 11 2.0 6.0 0.00 0.00 0.00 80 1015.7
20260507170224 69 325 2.0 6.0 0.00 0.00 0.00 80 1015.8
20260507165455 69 297 2.0 5.0 0.00 0.00 0.00 81 1015.9
20260507164953 69 327 1.0 8.0 0.00 0.00 0.00 80 1015.8
20260507164454 68 5 2.0 8.0 0.00 0.00 0.00 80 1015.8
20260507163954 68 5 2.0 8.0 0.00 0.00 0.00 81 1015.8
20260507163454 68 310 2.0 9.0 0.00 0.00 0.00 81 1015.6
20260507162953 68 316 2.0 9.0 0.00 0.00 0.00 81 1015.6
20260507162452 68 67 2.0 9.0 0.00 0.00 0.00 82 1015.5
20260507161952 67 47 2.0 9.0 0.00 0.00 0.00 81 1015.4
20260507161448 67 0 2.0 6.0 0.00 0.00 0.00 82 1015.3
20260507161217 66 0 3.0 6.0 0.00 0.00 0.00 83 1015.4
20260507160449 66 0 3.0 6.0 0.00 0.00 0.00 83 1015.3
20260507155948 66 0 2.0 6.0 0.00 0.00 0.00 83 1015.5
20260507155443 66 0 2.0 6.0 0.00 0.00 0.00 83 1015.5
20260507155215 66 16 2.0 8.0 0.00 0.00 0.00 83 1015.6
20260507154444 66 44 2.0 8.0 0.00 0.00 0.00 83 1015.6
20260507153943 66 0 2.0 8.0 0.00 0.00 0.00 83 1015.6
20260507153444 66 0 3.0 8.0 0.00 0.00 0.00 83 1015.6
20260507153215 66 329 3.0 8.0 0.00 0.00 0.00 83 1015.7
20260507152444 66 33 3.0 8.0 0.00 0.00 0.00 83 1015.7
20260507151945 66 337 3.0 8.0 0.00 0.00 0.00 83 1015.8
20260507151442 66 45 3.0 8.0 0.00 0.00 0.00 83 1015.8
20260507150941 66 65 3.0 8.0 0.00 0.00 0.00 83 1015.7
20260507150441 66 315 3.0 9.0 0.00 0.00 0.00 83 1015.8
20260507145941 66 345 2.0 9.0 0.00 0.00 0.00 83 1015.9
20260507145439 66 27 2.0 10.0 0.00 0.00 0.00 84 1015.8
20260507144939 66 327 2.0 10.0 0.00 0.00 0.00 83 1015.7
20260507144439 66 43 2.0 10.0 0.00 0.00 0.00 83 1015.5
20260507143939 66 75 2.0 10.0 0.00 0.00 0.00 83 1015.3
20260507143438 66 34 2.0 9.0 0.00 0.00 0.00 83 1015.4
20260507142939 66 80 2.0 9.0 0.00 0.00 0.00 83 1015.2
20260507142441 66 328 3.0 9.0 0.00 0.00 0.00 83 1015.1
20260507141935 66 329 2.0 9.0 0.00 0.00 0.00 83 1014.9
20260507141436 66 327 1.0 10.0 0.00 0.00 0.00 83 1014.9
20260507140936 66 42 2.0 10.0 0.00 0.00 0.00 83 1014.9
20260507140433 67 44 3.0 10.0 0.00 0.00 0.00 83 1015.1
20260507135934 67 30 2.0 10.0 0.00 0.00 0.00 83 1015.0
20260507135435 67 56 2.0 5.0 0.00 0.00 0.00 83 1014.9
20260507134933 67 40 2.0 4.0 0.00 0.00 0.00 83 1015.0
20260507134434 67 38 1.0 8.0 0.00 0.00 0.00 83 1015.2
20260507133934 67 5 2.0 8.0 0.00 0.00 0.00 83 1015.2
20260507133433 67 39 2.0 6.0 0.00 0.00 0.00 82 1015.4
20260507132936 67 355 3.0 6.0 0.00 0.00 0.00 82 1015.3
20260507132433 67 337 3.0 9.0 0.00 0.00 0.00 82 1015.5
20260507131936 67 50 2.0 9.0 0.00 0.00 0.00 82 1015.5
20260507131704 67 314 3.0 9.0 0.00 0.00 0.00 82 1015.6
20260507130932 67 34 3.0 9.0 0.00 0.00 0.00 82 1015.4
20260507130432 67 335 3.0 9.0 0.00 0.00 0.00 82 1015.4
20260507130202 67 343 2.0 8.0 0.00 0.00 0.00 82 1015.3
20260507125429 67 29 2.0 7.0 0.00 0.00 0.00 83 1015.4
20260507124930 68 39 3.0 7.0 0.00 0.00 0.00 83 1015.3
20260507124431 68 317 3.0 7.0 0.00 0.00 0.00 83 1015.2
20260507123931 68 330 3.0 10.0 0.00 0.00 0.00 83 1015.1
20260507123428 68 10 4.0 10.0 0.00 0.00 0.00 83 1014.9
20260507122928 68 18 3.0 9.0 0.00 0.00 0.00 83 1014.8
20260507122429 68 347 2.0 7.0 0.00 0.00 0.00 83 1014.4
20260507122159 68 0 2.0 7.0 0.00 0.00 0.00 83 1014.3
20260507121658 68 321 2.0 8.0 0.00 0.00 0.00 83 1014.4
20260507120928 68 9 3.0 8.0 0.00 0.00 0.00 83 1014.4
20260507120428 68 328 2.0 8.0 0.00 0.00 0.00 84 1014.4
20260507115927 69 37 2.0 8.0 0.00 0.00 0.00 84 1014.2
20260507115428 69 328 2.0 8.0 0.00 0.00 0.00 83 1014.1
20260507114925 69 20 2.0 8.0 0.00 0.00 0.00 83 1014.1
20260507114426 69 48 2.0 8.0 0.00 0.00 0.00 83 1014.1
20260507113925 69 58 1.0 4.0 0.00 0.00 0.00 83 1013.7
20260507113425 69 140 0.0 2.0 0.00 0.00 0.00 83 1013.6
20260507113155 69 140 0.0 3.0 0.00 0.00 0.00 83 1013.3
20260507112419 69 141 2.0 5.0 0.00 0.00 0.00 83 1013.6
20260507111917 69 20 2.0 5.0 0.00 0.00 0.00 83 1013.3
20260507111415 69 75 2.0 5.0 0.00 0.00 0.00 83 1013.3
20260507110914 69 38 2.0 5.0 0.00 0.00 0.00 83 1013.3
20260507110415 69 0 2.0 5.0 0.00 0.00 0.00 83 1013.5
20260507105914 69 0 2.0 4.0 0.00 0.00 0.00 83 1013.3
20260507105413 69 323 1.0 3.0 0.00 0.00 0.00 83 1013.2
20260507104913 69 11 1.0 6.0 0.00 0.00 0.00 83 1013.1
20260507104412 69 18 1.0 6.0 0.00 0.00 0.00 83 1013.2
20260507103910 69 19 1.0 7.0 0.00 0.00 0.00 83 1013.2
20260507103409 69 325 1.0 7.0 0.00 0.00 0.00 83 1013.3
20260507102908 69 28 1.0 6.0 0.00 0.00 0.00 83 1013.2
20260507102406 69 14 1.0 6.0 0.00 0.00 0.00 83 1013.2
20260507102135 69 344 3.0 6.0 0.00 0.00 0.00 83 1013.1
20260507101402 69 0 2.0 6.0 0.00 0.00 0.00 83 1013.0
20260507100901 69 63 2.0 7.0 0.00 0.00 0.00 82 1013.0
20260507100401 69 350 3.0 7.0 0.00 0.00 0.00 82 1013.0
20260507095900 69 0 2.0 6.0 0.00 0.00 0.00 82 1012.8
20260507095359 69 55 1.0 5.0 0.00 0.00 0.00 82 1012.9
20260507094856 69 36 2.0 5.0 0.00 0.00 0.00 82 1012.7
20260507094357 69 0 1.0 5.0 0.00 0.00 0.00 82 1012.6
20260507094125 69 23 1.0 5.0 0.00 0.00 0.00 82 1012.7
20260507093353 69 313 2.0 5.0 0.00 0.00 0.00 82 1012.3
20260507092853 69 0 2.0 5.0 0.00 0.00 0.00 81 1012.2
20260507092625 69 0 2.0 9.0 0.00 0.00 0.00 81 1012.4
20260507091852 70 0 2.0 9.0 0.00 0.00 0.00 81 1012.5
20260507091352 70 0 2.0 9.0 0.00 0.00 0.00 81 1012.4
20260507090852 70 0 3.0 9.0 0.00 0.00 0.00 81 1012.3
20260507090350 70 0 2.0 8.0 0.00 0.00 0.00 81 1012.4
20260507085851 70 0 2.0 5.0 0.00 0.00 0.00 81 1012.6
20260507085351 70 0 2.0 5.0 0.00 0.00 0.00 81 1012.3
20260507084850 70 0 2.0 8.0 0.00 0.00 0.00 81 1012.4
20260507084351 70 0 3.0 8.0 0.00 0.00 0.00 81 1012.5
20260507084123 70 0 2.0 5.0 0.00 0.00 0.00 81 1012.5
20260507083347 70 0 2.0 4.0 0.00 0.00 0.00 81 1012.7
20260507082844 70 0 1.0 5.0 0.00 0.00 0.00 81 1012.4
20260507082344 70 0 1.0 5.0 0.00 0.00 0.00 81 1012.4
20260507081847 70 0 2.0 5.0 0.00 0.00 0.00 81 1012.4
20260507081345 70 0 2.0 5.0 0.00 0.00 0.00 81 1012.4
20260507080844 70 0 1.0 6.0 0.00 0.00 0.00 81 1012.5
20260507080344 70 0 1.0 6.0 0.00 0.00 0.00 80 1012.6
20260507080231 70 0 2.0 8.0 0.00 0.00 0.00 80 1012.8
20260507080119 70 0 2.0 8.0 0.00 0.00 0.00 80 1012.5
20260507074840 70 0 2.0 8.0 0.00 0.00 0.00 80 1012.8
20260507074611 70 0 2.0 8.0 0.00 0.00 0.00 80 1012.8
20260507073837 71 0 2.0 10.0 0.00 0.00 0.00 80 1012.6
20260507073334 71 0 3.0 10.0 0.00 0.00 0.00 80 1012.6
20260507072836 71 0 2.0 8.0 0.00 0.00 0.00 80 1012.4
20260507072334 71 0 2.0 8.0 0.00 0.00 0.00 80 1012.5
20260507071831 71 0 2.0 8.0 0.00 0.00 0.00 80 1012.8
20260507071603 71 0 1.0 8.0 0.00 0.00 0.00 80 1013.0
20260507070828 71 0 2.0 9.0 0.00 0.00 0.00 80 1013.0
20260507070327 71 0 2.0 9.0 0.00 0.00 0.00 80 1012.8
20260507065827 71 0 2.0 6.0 0.00 0.00 0.00 80 1012.8
20260507065327 71 0 2.0 6.0 0.00 0.00 0.00 80 1013.0
20260507064828 71 0 2.0 6.0 0.00 0.00 0.00 80 1012.9
20260507064328 71 0 2.0 8.0 0.00 0.00 0.00 79 1012.7
20260507063829 72 0 3.0 8.0 0.00 0.00 0.00 79 1012.7
20260507063323 72 0 3.0 6.0 0.00 0.00 0.00 80 1012.9
20260507062823 72 0 3.0 6.0 0.00 0.00 0.00 80 1012.9
20260507062324 72 0 3.0 6.0 0.00 0.00 0.00 80 1012.7
20260507061824 72 0 3.0 8.0 0.00 0.00 0.00 80 1012.7
20260507061556 72 0 2.0 8.0 0.00 0.00 0.00 80 1012.7
20260507060822 72 0 2.0 9.0 0.00 0.00 0.00 80 1012.7
20260507060321 73 0 2.0 9.0 0.00 0.00 0.00 80 1012.5
20260507060054 73 0 2.0 9.0 0.00 0.00 0.00 80 1012.4
20260507055321 73 0 2.0 9.0 0.00 0.00 0.00 80 1012.7
20260507054822 73 0 3.0 9.0 0.00 0.00 0.00 79 1012.6
20260507054320 73 0 3.0 9.0 0.00 0.00 0.00 80 1012.3
20260507054049 73 0 3.0 8.0 0.00 0.00 0.00 80 1012.0
20260507053320 73 0 3.0 9.0 0.00 0.00 0.00 80 1012.1
20260507052829 73 0 2.0 11.0 0.00 0.00 0.00 79 1012.1
20260507052824 73 0 3.0 9.0 0.00 0.00 0.00 79 1012.0
20260507051818 74 0 3.0 11.0 0.00 0.00 0.00 79 1012.2
20260507051317 74 0 3.0 10.0 0.00 0.00 0.00 80 1012.3
20260507050816 74 0 3.0 6.0 0.00 0.00 0.00 80 1012.4
20260507050315 74 0 2.0 5.0 0.00 0.00 0.00 80 1012.4
20260507045811 74 0 2.0 5.0 0.00 0.00 0.00 80 1012.3
20260507045310 74 0 2.0 5.0 0.00 0.00 0.00 79 1012.3
20260507044809 74 0 2.0 5.0 0.00 0.00 0.00 79 1012.3
20260507044306 74 0 2.0 6.0 0.00 0.00 0.00 79 1012.2
20260507043806 74 0 3.0 8.0 0.00 0.00 0.00 79 1012.2
20260507043304 75 0 3.0 8.0 0.00 0.00 0.00 79 1012.2
20260507042801 75 0 2.0 6.0 0.00 0.00 0.00 79 1012.2
20260507042530 75 0 2.0 6.0 0.00 0.00 0.00 79 1012.2
20260507041758 75 0 3.0 6.0 0.00 0.00 0.00 79 1012.2
20260507041257 75 0 2.0 8.0 0.00 0.00 0.00 79 1012.3
20260507040757 75 0 2.0 8.0 0.00 0.00 0.00 80 1012.3
20260507040528 76 0 2.0 6.0 0.00 0.00 0.00 80 1012.4
20260507035753 76 0 3.0 6.0 0.00 0.00 0.00 80 1012.3
20260507035252 76 0 3.0 9.0 0.00 0.00 0.00 80 1012.3
20260507034754 76 0 3.0 9.0 0.00 0.00 0.00 80 1012.2
20260507034251 76 0 3.0 6.0 0.00 0.00 0.00 80 1012.1
20260507033753 76 0 3.0 6.0 0.00 0.00 0.00 80 1012.0
20260507033524 76 0 3.0 10.0 0.00 0.00 0.00 80 1011.9
20260507032753 77 33 2.0 10.0 0.00 0.00 0.00 80 1011.8
20260507032252 77 5 2.0 10.0 0.00 0.00 0.00 80 1011.7
20260507031752 77 5 2.0 10.0 0.00 0.00 0.00 80 1011.5
20260507031251 77 246 2.0 9.0 0.00 0.00 0.00 80 1011.4